Time,TemperatureF,DewpointF,PressureIn,WindDirection,WindDirectionDegrees,WindSpeedMPH,WindSpeedGustMPH,Humidity,HourlyPrecipIn,Conditions,Clouds,dailyrainin,SoftwareType,DateUTC
2013-01-27 00:13:00,11.3,4.7,30.20,South,180,1.1,-999.0,74,-99.99,,,0.00,Acu-Link.com,2013-01-27 05:13:00,
2013-01-27 00:28:00,10.8,4.5,30.20,West,270,0.0,-999.0,75,-99.99,,,0.00,Acu-Link.com,2013-01-27 05:28:00,
2013-01-27 00:43:00,10.9,4.8,30.20,West,270,1.1,-999.0,76,-99.99,,,0.00,Acu-Link.com,2013-01-27 05:43:00,
2013-01-27 00:58:00,10.4,4.6,30.21,WNW,292,0.0,-999.0,77,-99.99,,,0.00,Acu-Link.com,2013-01-27 05:58:00,
2013-01-27 01:13:00,10.0,4.8,30.21,West,270,0.0,-999.0,79,-99.99,,,0.00,Acu-Link.com,2013-01-27 06:13:00,
2013-01-27 01:28:00,9.7,5.1,30.22,WNW,292,1.1,-999.0,81,-99.99,,,0.00,Acu-Link.com,2013-01-27 06:28:00,
2013-01-27 01:43:00,9.3,5.2,30.22,NE,45,0.0,-999.0,83,-99.99,,,0.00,Acu-Link.com,2013-01-27 06:43:00,
2013-01-27 01:58:00,8.8,5.0,30.23,NW,315,0.0,-999.0,84,-99.99,,,0.00,Acu-Link.com,2013-01-27 06:58:00,
2013-01-27 02:14:00,9.0,5.7,30.23,West,270,1.7,-999.0,86,-99.99,,,0.00,Acu-Link.com,2013-01-27 07:14:00,
2013-01-27 02:29:00,9.1,6.0,30.24,West,270,1.1,-999.0,87,-99.99,,,0.00,Acu-Link.com,2013-01-27 07:29:00,
2013-01-27 02:44:00,9.3,6.7,30.24,SW,225,1.1,-999.0,89,-99.99,,,0.00,Acu-Link.com,2013-01-27 07:44:00,
2013-01-27 02:59:00,9.7,7.1,30.24,ESE,112,1.1,-999.0,89,-99.99,,,0.00,Acu-Link.com,2013-01-27 07:59:00,
2013-01-27 03:14:00,10.0,8.1,30.24,West,270,1.7,-999.0,92,-99.99,,,0.00,Acu-Link.com,2013-01-27 08:14:00,
2013-01-27 03:29:00,9.9,8.3,30.25,West,270,1.1,-999.0,93,-99.99,,,0.00,Acu-Link.com,2013-01-27 08:29:00,
2013-01-27 03:44:00,9.7,8.6,30.24,SSE,157,1.1,-999.0,95,-99.99,,,0.00,Acu-Link.com,2013-01-27 08:44:00,
2013-01-27 03:59:00,10.2,9.1,30.24,West,270,1.1,-999.0,95,-99.99,,,0.00,Acu-Link.com,2013-01-27 08:59:00,
2013-01-27 04:16:00,9.9,8.8,30.24,SW,225,1.7,-999.0,95,-99.99,,,0.00,Acu-Link.com,2013-01-27 09:16:00,
2013-01-27 04:31:00,10.2,9.5,30.25,WSW,247,2.7,-999.0,97,-99.99,,,0.00,Acu-Link.com,2013-01-27 09:31:00,
2013-01-27 04:46:00,11.1,10.6,30.25,WSW,247,2.2,-999.0,98,-99.99,,,0.00,Acu-Link.com,2013-01-27 09:46:00,
2013-01-27 05:02:00,11.3,10.8,30.25,West,270,2.2,-999.0,98,-99.99,,,0.00,Acu-Link.com,2013-01-27 10:02:00,
2013-01-27 05:17:00,11.3,10.8,30.26,WSW,247,0.0,-999.0,98,-99.99,,,0.00,Acu-Link.com,2013-01-27 10:17:00,
2013-01-27 05:32:00,10.9,10.4,30.26,WNW,292,0.0,-999.0,98,-99.99,,,0.00,Acu-Link.com,2013-01-27 10:32:00,
2013-01-27 05:47:00,10.8,10.3,30.27,West,270,0.0,-999.0,98,-99.99,,,0.00,Acu-Link.com,2013-01-27 10:47:00,
2013-01-27 06:02:00,11.3,10.4,30.26,West,270,0.0,-999.0,96,-99.99,,,0.00,Acu-Link.com,2013-01-27 11:02:00,
2013-01-27 06:17:00,11.8,10.2,30.26,West,270,0.0,-999.0,93,-99.99,,,0.00,Acu-Link.com,2013-01-27 11:17:00,
2013-01-27 06:32:00,12.2,10.1,30.26,West,270,0.0,-999.0,91,-99.99,,,0.00,Acu-Link.com,2013-01-27 11:32:00,
2013-01-27 06:47:00,12.4,9.5,30.27,South,180,1.1,-999.0,88,-99.99,,,0.00,Acu-Link.com,2013-01-27 11:47:00,
2013-01-27 07:02:00,12.6,9.5,30.27,West,270,2.2,-999.0,87,-99.99,,,0.00,Acu-Link.com,2013-01-27 12:02:00,
2013-01-27 07:18:00,12.9,9.3,30.28,West,270,2.2,-999.0,85,-99.99,,,0.00,Acu-Link.com,2013-01-27 12:18:00,
2013-01-27 07:33:00,15.4,10.4,30.29,East,90,0.0,-999.0,80,-99.99,,,0.00,Acu-Link.com,2013-01-27 12:33:00,
2013-01-27 07:48:00,16.7,10.5,30.29,East,90,1.7,-999.0,76,-99.99,,,0.00,Acu-Link.com,2013-01-27 12:48:00,
2013-01-27 08:03:00,17.8,10.6,30.30,ESE,112,2.7,-999.0,73,-99.99,,,0.00,Acu-Link.com,2013-01-27 13:03:00,
2013-01-27 08:18:00,18.1,10.3,30.31,West,270,0.0,-999.0,71,-99.99,,,0.00,Acu-Link.com,2013-01-27 13:18:00,
2013-01-27 08:33:00,20.1,10.6,30.30,NW,315,4.7,-999.0,66,-99.99,,,0.00,Acu-Link.com,2013-01-27 13:33:00,
2013-01-27 08:48:00,19.9,9.4,30.31,West,270,1.7,-999.0,63,-99.99,,,0.00,Acu-Link.com,2013-01-27 13:48:00,
2013-01-27 09:03:00,20.7,8.7,30.31,NNE,22,1.7,-999.0,59,-99.99,,,0.00,Acu-Link.com,2013-01-27 14:03:00,
2013-01-27 09:18:00,22.1,8.8,30.32,WSW,247,0.0,-999.0,56,-99.99,,,0.00,Acu-Link.com,2013-01-27 14:18:00,
2013-01-27 09:34:00,21.9,7.4,30.33,West,270,3.7,-999.0,53,-99.99,,,0.00,Acu-Link.com,2013-01-27 14:34:00,
2013-01-27 09:49:00,22.1,5.9,30.33,SSW,202,1.7,-999.0,49,-99.99,,,0.00,Acu-Link.com,2013-01-27 14:49:00,
2013-01-27 10:04:00,23.2,6.0,30.34,NNW,337,2.7,-999.0,47,-99.99,,,0.00,Acu-Link.com,2013-01-27 15:04:00,
2013-01-27 10:19:00,24.1,6.3,30.34,SW,225,3.7,-999.0,46,-99.99,,,0.00,Acu-Link.com,2013-01-27 15:19:00,
2013-01-27 10:34:00,23.9,4.7,30.35,NNW,337,3.2,-999.0,43,-99.99,,,0.00,Acu-Link.com,2013-01-27 15:34:00,
2013-01-27 10:49:00,25.5,3.5,30.35,NNW,337,3.7,-999.0,38,-99.99,,,0.00,Acu-Link.com,2013-01-27 15:49:00,
2013-01-27 11:04:00,26.4,3.1,30.36,North,0,6.8,-999.0,36,-99.99,,,0.00,Acu-Link.com,2013-01-27 16:04:00,
2013-01-27 11:19:00,25.9,3.3,30.35,NNW,337,4.7,-999.0,37,-99.99,,,0.00,Acu-Link.com,2013-01-27 16:19:00,
2013-01-27 11:34:00,25.7,3.6,30.36,West,270,2.2,-999.0,38,-99.99,,,0.00,Acu-Link.com,2013-01-27 16:34:00,
2013-01-27 11:50:00,25.3,2.7,30.34,NNW,337,8.9,-999.0,37,-99.99,,,0.00,Acu-Link.com,2013-01-27 16:50:00,
2013-01-27 12:05:00,25.5,2.9,30.35,WNW,292,6.3,-999.0,37,-99.99,,,0.00,Acu-Link.com,2013-01-27 17:05:00,
2013-01-27 12:20:00,26.1,3.4,30.33,West,270,3.2,-999.0,37,-99.99,,,0.00,Acu-Link.com,2013-01-27 17:20:00,
2013-01-27 12:35:00,26.8,4.1,30.33,West,270,3.7,-999.0,37,-99.99,,,0.00,Acu-Link.com,2013-01-27 17:35:00,
2013-01-27 12:50:00,27.3,5.7,30.33,West,270,4.7,-999.0,39,-99.99,,,0.00,Acu-Link.com,2013-01-27 17:50:00,
2013-01-27 13:05:00,26.8,3.5,30.32,North,0,4.2,-999.0,36,-99.99,,,0.00,Acu-Link.com,2013-01-27 18:05:00,
2013-01-27 13:20:00,27.0,3.6,30.32,NNW,337,5.3,-999.0,36,-99.99,,,0.00,Acu-Link.com,2013-01-27 18:20:00,
2013-01-27 13:35:00,27.1,3.7,30.31,NNW,337,4.2,-999.0,36,-99.99,,,0.00,Acu-Link.com,2013-01-27 18:35:00,
2013-01-27 13:50:00,27.3,4.5,30.32,West,270,6.3,-999.0,37,-99.99,,,0.00,Acu-Link.com,2013-01-27 18:50:00,
2013-01-27 14:06:00,27.9,4.4,30.31,NW,315,2.2,-999.0,36,-99.99,,,0.00,Acu-Link.com,2013-01-27 19:06:00,
2013-01-27 14:21:00,27.9,4.4,30.31,WNW,292,4.2,-999.0,36,-99.99,,,0.00,Acu-Link.com,2013-01-27 19:21:00,
2013-01-27 14:36:00,28.4,4.9,30.31,NNW,337,2.2,-999.0,36,-99.99,,,0.00,Acu-Link.com,2013-01-27 19:36:00,
2013-01-27 14:51:00,28.6,5.7,30.32,WNW,292,2.2,-999.0,37,-99.99,,,0.00,Acu-Link.com,2013-01-27 19:51:00,
2013-01-27 15:06:00,27.9,4.4,30.32,West,270,2.2,-999.0,36,-99.99,,,0.00,Acu-Link.com,2013-01-27 20:06:00,
2013-01-27 15:21:00,27.9,4.4,30.32,WNW,292,2.7,-999.0,36,-99.99,,,0.00,Acu-Link.com,2013-01-27 20:21:00,
2013-01-27 15:37:00,27.7,3.7,30.32,ENE,67,5.3,-999.0,35,-99.99,,,0.00,Acu-Link.com,2013-01-27 20:37:00,
2013-01-27 15:52:00,27.5,3.5,30.33,SSW,202,4.7,-999.0,35,-99.99,,,0.00,Acu-Link.com,2013-01-27 20:52:00,
2013-01-27 16:07:00,27.3,4.5,30.33,NNE,22,0.0,-999.0,37,-99.99,,,0.00,Acu-Link.com,2013-01-27 21:07:00,
2013-01-27 16:22:00,26.8,3.5,30.34,West,270,3.7,-999.0,36,-99.99,,,0.00,Acu-Link.com,2013-01-27 21:22:00,
2013-01-27 16:37:00,25.9,4.4,30.34,NNW,337,1.1,-999.0,39,-99.99,,,0.00,Acu-Link.com,2013-01-27 21:37:00,
2013-01-27 16:52:00,25.5,5.1,30.35,West,270,2.2,-999.0,41,-99.99,,,0.00,Acu-Link.com,2013-01-27 21:52:00,
2013-01-27 17:07:00,25.0,5.2,30.35,West,270,2.2,-999.0,42,-99.99,,,0.00,Acu-Link.com,2013-01-27 22:07:00,
2013-01-27 17:22:00,24.1,4.9,30.34,West,270,2.7,-999.0,43,-99.99,,,0.00,Acu-Link.com,2013-01-27 22:22:00,
2013-01-27 17:37:00,23.7,4.5,30.36,West,270,3.2,-999.0,43,-99.99,,,0.00,Acu-Link.com,2013-01-27 22:37:00,
2013-01-27 17:53:00,23.2,5.0,30.36,West,270,1.1,-999.0,45,-99.99,,,0.00,Acu-Link.com,2013-01-27 22:53:00,
2013-01-27 18:08:00,22.6,4.5,30.36,West,270,1.7,-999.0,45,-99.99,,,0.00,Acu-Link.com,2013-01-27 23:08:00,
2013-01-27 18:23:00,21.9,3.9,30.36,West,270,0.0,-999.0,45,-99.99,,,0.00,Acu-Link.com,2013-01-27 23:23:00,
2013-01-27 18:38:00,21.4,3.9,30.36,West,270,0.0,-999.0,46,-99.99,,,0.00,Acu-Link.com,2013-01-27 23:38:00,
2013-01-27 18:53:00,20.7,3.2,30.36,WNW,292,0.0,-999.0,46,-99.99,,,0.00,Acu-Link.com,2013-01-27 23:53:00,
2013-01-27 19:08:00,20.1,3.1,30.37,West,270,0.0,-999.0,47,-99.99,,,0.00,Acu-Link.com,2013-01-28 00:08:00,
2013-01-27 19:23:00,19.6,3.6,30.37,SSE,157,0.0,-999.0,49,-99.99,,,0.00,Acu-Link.com,2013-01-28 00:23:00,
2013-01-27 19:38:00,19.0,3.9,30.36,WSW,247,0.0,-999.0,51,-99.99,,,0.00,Acu-Link.com,2013-01-28 00:38:00,
2013-01-27 19:53:00,18.9,3.8,30.37,West,270,0.0,-999.0,51,-99.99,,,0.00,Acu-Link.com,2013-01-28 00:53:00,
2013-01-27 20:09:00,19.0,4.3,30.37,West,270,1.7,-999.0,52,-99.99,,,0.00,Acu-Link.com,2013-01-28 01:09:00,
2013-01-27 20:24:00,19.2,3.2,30.37,WNW,292,0.0,-999.0,49,-99.99,,,0.00,Acu-Link.com,2013-01-28 01:24:00,
2013-01-27 20:39:00,19.2,3.6,30.36,West,270,0.0,-999.0,50,-99.99,,,0.00,Acu-Link.com,2013-01-28 01:39:00,
2013-01-27 20:54:00,18.9,2.9,30.37,West,270,0.0,-999.0,49,-99.99,,,0.00,Acu-Link.com,2013-01-28 01:54:00,
2013-01-27 21:09:00,19.0,3.0,30.36,West,270,0.0,-999.0,49,-99.99,,,0.00,Acu-Link.com,2013-01-28 02:09:00,
2013-01-27 21:24:00,19.2,3.2,30.36,WSW,247,0.0,-999.0,49,-99.99,,,0.00,Acu-Link.com,2013-01-28 02:24:00,
2013-01-27 21:39:00,18.7,3.2,30.36,West,270,0.0,-999.0,50,-99.99,,,0.00,Acu-Link.com,2013-01-28 02:39:00,
2013-01-27 21:55:00,18.0,6.1,30.36,West,270,0.0,-999.0,59,-99.99,,,0.00,Acu-Link.com,2013-01-28 02:55:00,
2013-01-27 22:10:00,17.1,7.1,30.35,West,270,0.0,-999.0,64,-99.99,,,0.00,Acu-Link.com,2013-01-28 03:10:00,
2013-01-27 22:25:00,16.3,6.3,30.37,West,270,0.0,-999.0,64,-99.99,,,0.00,Acu-Link.com,2013-01-28 03:25:00,
2013-01-27 22:40:00,16.0,7.0,30.37,ESE,112,0.0,-999.0,67,-99.99,,,0.00,Acu-Link.com,2013-01-28 03:40:00,
2013-01-27 22:55:00,15.4,6.1,30.37,ESE,112,0.0,-999.0,66,-99.99,,,0.00,Acu-Link.com,2013-01-28 03:55:00,
2013-01-27 23:10:00,14.9,5.6,30.37,ENE,67,0.0,-999.0,66,-99.99,,,0.00,Acu-Link.com,2013-01-28 04:10:00,
2013-01-27 23:25:00,14.5,5.2,30.37,North,0,0.0,-999.0,66,-99.99,,,0.00,Acu-Link.com,2013-01-28 04:25:00,
2013-01-27 23:40:00,15.6,4.2,30.37,West,270,0.0,-999.0,60,-99.99,,,0.00,Acu-Link.com,2013-01-28 04:40:00,
2013-01-27 23:55:00,15.4,3.3,30.36,West,270,0.0,-999.0,58,-99.99,,,0.00,Acu-Link.com,2013-01-28 04:55:00,